Regional Weather Roundup
Issued by NWS Huntsville, AL

Home | Current Version | Previous Version | Text Only | Print | Product List | Glossary On
Versions: 1 2 3 4 5 6 7 8 9 10 11 12 13 14 15 16 17 18 19 20 21 22 23 24 25 26 27 28 29 30 31 32 33 34 35 36 37 38 39 40 41 42 43 44 45 46 47 48 49 50
000
ASUS44 KHUN 031610
RWRHUN

WEATHER ROUNDUP FOR THE TENNESSEE VALLEY
NATIONAL WEATHER SERVICE HUNTSVILLE AL
1100 AM CDT SUN MAY 03 2015

ALZ001>004-031700-
NORTHWEST ALABAMA

CITY           SKY/WX    TMP DP  RH WIND       PRES   REMARKS
COURTLAND HCN    N/A     73 N/A N/A CALM        N/A
RUSSELLVILLE     N/A     73 N/A N/A MISG        N/A
SHOALS AIRPORT SUNNY     74  51  44 VRB5      30.17R
SHOALS TVA RES   N/A     72 N/A N/A MISG        N/A
$$

ALZ005>007-016-031700-
NORTH CENTRAL ALABAMA

CITY           SKY/WX    TMP DP  RH WIND       PRES   REMARKS
CULLMAN AG STN   N/A     72 N/A N/A W5          N/A
DECATUR AP     SUNNY     73  51  46 S5        30.17R
HUNTSVILLE AP  MOSUNNY   76  49  38 S6        30.17R
HUN NWS/UAH      N/A     75  45  34 S9          N/A
MERIDIANVILLE  SUNNY     72  39  30 SW7       30.17S
REDSTONE ARSN  SUNNY     74  50  42 S9        30.16R
VINEMONT AP    FAIR      72  49  44 SW6       30.20R
$$

ALZ008>010-031700-
NORTHEAST ALABAMA

CITY           SKY/WX    TMP DP  RH WIND       PRES   REMARKS
ALBERTVILLE    SUNNY     72  54  53 SW9       30.18R
FORT PAYNE     SUNNY     72  43  35 W3        30.18S
SCOTTSBORO HCN   N/A     70 N/A N/A MISG        N/A
VALLEY HEAD      N/A     72 N/A N/A MISG        N/A
$$

TNZ076-096-097-031700-
SOUTHEASTERN MIDDLE TENNESSEE

CITY           SKY/WX    TMP DP  RH WIND       PRES   REMARKS
TULLAHOMA      SUNNY     73  46  38 VRB6      30.18S
WINCHESTER     SUNNY     73  48  40 SW9       30.17S
$$

...SURROUNDING SITES...

CITY           SKY/WX    TMP DP  RH WIND       PRES   REMARKS
ATLANTA        MOSUNNY   74  46  36 SW9       30.20R
ANNISTON       SUNNY     75  47  36 CALM      30.19R
BIRMINGHAM     MOSUNNY   76  48  37 VRB6      30.20R
CHATTANOOGA    MOSUNNY   74  53  48 CALM      30.19S
CORINTH        FAIR      75  50  41 S9        30.14S
DALTON         SUNNY     72  54  53 CALM      30.19S
GADSDEN        SUNNY    N/A N/A N/A SW7       30.17S
GOLDEN TRNGL   MOSUNNY   75  55  50 S7        30.15R
HALEYVILLE       N/A     73  51  45 MISG      30.20R
JACKSON TN     MOSUNNY   75  49  39 S8        30.13S
LEWISBURG      FAIR      74  49  41 S6        30.15S
MEMPHIS        PTSUNNY   77  51  40 S7        30.13R
NASHVILLE      MOSUNNY   76  51  41 S5        30.15S
OXFORD MS      LGT RAIN  73  46  38 SW7       30.15R
ROME           SUNNY     73  54  51 VRB3      30.18S
SAVANNAH       SUNNY     73  32  21 SW9       30.15S
TUPELO         SUNNY     75  50  41 SW12      30.15R
TUSCALOOSA     SUNNY     74  52  46 VRB7      30.17R
$$

...GULF COAST WEATHER...

CITY           SKY/WX    TMP DP  RH WIND       PRES   REMARKS
GULFPORT       SUNNY     76  56  49 E15       30.15R
PASCAGOULA     SUNNY     77  52  41 SE12      30.16R
MOBILE         MOSUNNY   77  50  38 SE13      30.16S
GULF SHORES    SUNNY     75  55  49 S9        30.17R
PENSACOLA      SUNNY     77  54  44 SE9       30.17R
DESTIN         SUNNY     77  56  48 SE12      30.18R
PANAMA CITY    SUNNY     76  59  55 E7        30.17S
APPALACHICOLA  SUNNY     79  60  52 E8        30.18R
$$



USA.gov is the U.S. government's official web portal to all federal, state and local government web resources and services.